Tracking 19792 objects as of 16-Jul-2019
HD Live streaming from Space Station
objects crossing your sky now

SL-12 DEB

Track SL-12 DEB now!
10-day predictions


NORAD ID: 25803
Int'l Code: 1987-079N
Perigee: 360.9 km
Apogee: 14,553.7 km
Inclination: 64.8 °
Period: 269.7 minutes
Semi major axis: 13828 km
RCS: 0.0856 m2 (small)
Launch date: September 16, 1987
Source: Commonwealth of Independent States (former USSR) (CIS)
Launch site: TYURATAM MISSILE AND SPACE COMPLEX (TTMTR)

Note: This is SATELLITE DEBRIS
aabbcc
Your satellite tracking list
Your tracking list is empty




NASA's NSSDC Master Catalog

Two Line Element Set (TLE):
1 25803U 87079N   16106.46317271  .00002606  00000-0  94342-3 0  9993
2 25803  64.8295 121.1891 5131789  40.0895 348.3757  5.33888755350554
Source of the keplerian elements: AFSPC